Volver al catálogo

ERS 15

ActivoCienciaPO
NORAD 2412·PAYLOAD·🇺🇸 United States

Lanzado Aug 19, 1966 desde Vandenberg Space Force Base

Loading…

Próximos Pases (próximas 24 horas)

TLE

ActualizadoSource: Space-Track

Época: Sep 14, 2026, 01:27 UTC

1 02412U 66077C   26257.06076963  .00000002  00000-0  00000-0 0  9996
2 02412  90.3250 278.2758 0006123 340.8365  19.2255  8.59079858398092

Sigue ERS 15 en tiempo real con AllMySat

Download on the App Store